World > North America > United States > Florida > North Palm Beach   Village of North Palm Beach, FL

Hourly North Palm Beach, FL Regional Weather

Feedback E-mail the Weather

Quick WX

North Palm Beach, FL Weather Maps

°F °C°F °C
North Palm Beach Weather Map
UTC Time: 8/17/2022, 19:04
Your Time:

North Palm Beach, FL Regional Weather

Expires:202208171900;;208997
ASUS42 KTBW 171816
RWRFL 
FLORIDA REGIONAL WEATHER ROUNDUP
NATIONAL WEATHER SERVICE TAMPA BAY RUSKIN FL
200 PM EDT WED AUG 17 2022

NOTE: "FAIR" INDICATES FEW OR NO CLOUDS BELOW 12,000 FEET WITH NO
SIGNIFICANT WEATHER AND/OR OBSTRUCTIONS TO VISIBILITY.


FLZ067-068-071>074-168-172>174-171900-
SOUTHEAST FLORIDA 
  
CITY           SKY/WX    TMP DP  RH WIND       PRES   REMARKS
W PALM BEACH   PTSUNNY   93  72  50 W10G22    29.96F HX 101           
BOCA RATON     MOSUNNY   86  73  66 NW15      29.98                   
FT LAUDER-EXEC MOSUNNY   92  74  55 W9        29.97F HX 101           
FT LAUDERDALE  MOSUNNY   93  74  53 W10       29.96F HX 103           
POMPANO BEACH  PTSUNNY   90  74  59 W13       29.97F HX  99           
PEMBROKE PINES PTSUNNY   89  73  59 SW15      29.99F HX  97           
OPA LOCKA      PTSUNNY   89  73  59 NW8       29.98F HX  97           
MIAMI          PTSUNNY   94  73  50 W9        29.97F HX 103           
WEST KENDALL   MOSUNNY   94  71  47 W9        29.98F HX 101           
HOMESTEAD      PTSUNNY   91  75  59 SW5       29.96F HX 102           

STATION/POSITION SKY/WX   TEMP    WIND        PRES    WAVE   SWELL
                          AIR SEA DIR/SP/G            HT/PER HT/PER
                          (F)     (DEG/KT/KT) (MB)    (FT/S) (FT/S)
VIRGINIA KEY               89 88  170/  7/  8 1016.1
LAKE WORTH                 89 86  270/  4/ 10 1014.5
FOWEY ROCKS                85 85  170/  9/  9 1015.6F
SETTLEMENT POINT           84     250/  8/ 10 1015.6F

$$

  

SKY/WX - Weather  TMP - Temperature  DP - Dew Point  RH - Humidity
WIND - Wind Direction/Speed PRES - Barometric Pressure VSB - Visibility
WCI - Wind Chill Index E13G22 Wind - East Wind 13 mph/Gusts of 22 mph

Trending Headlines

North Palm Beach Radar Loop



North Palm Beach Quick Facts


National Two Day Weather Forecast


E-mail the North Palm Beach Weather Forecast

Voice your opinion or tell us about page issues...